Location: Newark
(48.1500°N, 2.9667°W)
Time: 02:02:30
(UTC+00:00)

A-11 Canister half - Pass Details

Date: 01 February 2020
Orbit: 1517 x 1683 km, 47.2° (Epoch: 25 February)

Event Time Altitude Azimuth Distance (km) Brightness Sun altitude
Exits shadow 06:29:06 - 254° (WSW) 3,754 10.5 -12.1°
Reaches altitude 10° 06:30:14 10° 247° (WSW) 3,681 10.5 -12.0°
Maximum altitude 06:31:39 10° 238° (WSW) 3,649 10.6 -11.7°
Drops below altitude 10° 06:33:05 10° 229° (SW) 3,685 10.7 -11.5°
Sets 06:40:05 0° 193° (SSW) 4,691 11.6 -10.4°
